Other Public Products
Issued by NWS Charleston, SC

Home | Current Version | Previous Version | Text Only | Print | Product List | Glossary On
Versions: 1 2 3 4 5 6 7 8 9 10 11 12 13 14 15 16 17 18 19 20 21 22 23 24 25 26 27 28 29 30 31 32 33 34 35 36 37 38 39 40 41 42 43 44 45 46 47 48 49 50
076
FPUS82 KCHS 190727
OPUCHS

TEST...KCHS/KSAV Gateway Observations...TEST
National Weather Service Charleston SC
200 AM EST FRI JAN 19 2018

NOTE: "fair" indicates few or no clouds below 12,000 feet with no
significant weather and/or obstructions to visibility.

SCZ050-WAZ558-NCZ071-TXZ119-213-PAZ071-DCZ001-FLZ074-172-MI076-
NYZ176-178-MAZ016-IL014-TNZ027-NJZ106-GAZ044-MD014-190800-

...Gateway Observations for Charleston International...

CITY           SKY/WX    TMP DP  RH WIND       PRES   REMARKS
Chas Airport   FAIR      32  17  54 W5        30.30F WCI  27
Seattle        MOCLDY    41  36  82 S9        29.79F
Charlotte      FAIR      27  21  78 SW3       30.22F
Dallas DFW     MOCLDY    39  18  42 S13       30.26F WCI  31
Dallas Love    CLOUDY    38  18  44 S8        30.29F WCI  32
Philladelphia  FAIR      24  15  68 CALM      30.08F
Wash National  FAIR      29  22  75 S8        30.12F WCI  21
Baltimore      FAIR      25  11  55 SW3       30.09F
Miami          MOCLDY    50  45  83 NW8       30.27F
Detroit        FAIR      24  15  68 SW14      29.96F WCI  12
Newark         FAIR      23  12  62 W5        30.05F WCI  17
Laguardia      FAIR      26  12  55 W8        30.04S WCI  18
J F K          FAIR      25  13  60 W8        30.06S WCI  16
Boston Logan   FAIR      23  15  71 W13       29.94R WCI  11
Ft. Lauderdale MOCLDY    48  47  96 NW7       30.25F
Chicago O`Hare FAIR      30  18  60 SW10      29.93F WCI  21
Chicago Midway FAIR      29  20  69 SW14      29.95F WCI  18
Houston Bush   CLOUDY    37  23  56 SE6       30.38F WCI  32
Houston Hobby  MOCLDY    37  26  64 CALM      30.37F
Nashville      FAIR      21  13  71 S6        30.32F WCI  13
Atlanta        FAIR      28  14  55 NW8       30.29F WCI  20

$$

GAZ044-118-TXZ119-213-NCZ071-DCZ001-MDZ014-506-PAZ021-071-NJZ106-
NYZ176-178-MAZ106-OHZ011-021-055-MIZ076-KYZ091-ILZ014-INZ047-
MNZ060-ONZ431-190800-

...Gateway Observations for Savannah International...

CITY           SKY/WX    TMP DP  RH WIND       PRES   REMARKS
Savannah Arpt  FAIR      29  19  66 CALM      30.33S
Atlanta        FAIR      28  14  55 NW8       30.29F WCI  20
Charlotte      FAIR      27  21  78 SW3       30.22F
Dallas DFW     MOCLDY    39  18  42 S13       30.26F WCI  31
Houston Bush   CLOUDY    37  23  56 SE6       30.38F WCI  32
Wash National  FAIR      29  22  75 S8        30.12F WCI  21
Wash Dulles    FAIR      25  14  63 S5        30.10F WCI  19
Baltimore      FAIR      25  11  55 SW3       30.09F
Philadelphia   FAIR      24  15  68 CALM      30.08F
Newark         FAIR      23  12  62 W5        30.05F WCI  17
Laguardia      FAIR      26  12  55 W8        30.04S WCI  18
J F K          FAIR      25  13  60 W8        30.06S WCI  16
Boston         FAIR      23  15  71 W13       29.94R WCI  11
Pittsburg      FAIR      24  10  55 SW9       30.08S WCI  14
Akron          FAIR      21  10  62 SW15      30.06R WCI   8
Cleveland      FAIR      29  13  51 SW14G23   30.06R WCI  18
Cincinnati     FAIR      22  13  68 SW12      30.16F WCI  10
Columbus       FAIR      20  11  68 SW12      30.15R WCI   8
Detroit        FAIR      24  15  68 SW14      29.96F WCI  12
Chicago O`Hare FAIR      30  18  60 SW10      29.93F WCI  21
Minneapolis    CLOUDY    31  27  85 SW5       29.73F WCI  26
Indianapolis   FAIR      24  13  62 SW15      30.13F WCI  11
Toronto Canada PTCLDY    21  12  68 SW6       29.88S WCI  14

$$




USA.gov is the U.S. government's official web portal to all federal, state and local government web resources and services.